Cincinnati, OH

12:50 PM EST on February 07, 2016 (GMT -0500)
Cincinnati Municipal-Lunken

Weather History for KLUK - January, 2013

Change the Weather History Date:

Thursday, January 3, 2013

  Actual Average (KCVG) Record (KCVG)
Temperature  
Mean Temperature 26 °F 31 °F  
Max Temperature 36 °F 39 °F 67 °F (2004)
Min Temperature 17 °F 23 °F -10 °F (1879)
Degree Days  
Heating Degree Days 38 34  
Month to date heating degree days 102  
Since 1 July heating degree days 2021  
Cooling Degree Days 0 0  
Month to date cooling degree days 0  
Year to date cooling degree days 0  
Moisture  
Dew Point 19 °F    
Average Humidity 70    
Maximum Humidity 93    
Minimum Humidity 44    
Precipitation  
Precipitation 0.00 in 0.10 in 3.23 in (2000)
Month to date precipitation 0.31  
Year to date precipitation 0.31  
Snow  
Snow 0.00 in 0.10 in 5.50 in (1911)
Month to date snowfall 0.5  
Since 1 July snowfall 6.1  
Snow Depth -    
Sea Level Pressure  
Sea Level Pressure 30.30 in    
Wind  
Wind Speed 4 mph (WSW)    
Max Wind Speed 16 mph    
Max Gust Speed 21 mph    
Visibility 9 miles    
Events      
T = Trace of Precipitation, MM = Missing Value Source: NWS Daily Summary

Daily Weather History Graph

Daily Weather History Graph

Search for Another Location

Airport or City:

Trip Planner

Search our weather history database for the weather conditions in past years. The results will help you decide how hot, cold, wet, or windy it might be!

Date:

Astronomy

Jan. 03, 2013 Rise Set
Actual Time 7:57 AM EST 5:27 PM EST
Civil Twilight 7:27 AM EST 5:57 PM EST
Nautical Twilight 6:53 AM EST 6:31 PM EST
Astronomical Twilight 6:21 AM EST 7:03 PM EST
Moon 11:59 PM EST (1/3) 11:11 AM EST (1/3)
Length of Visible Light 10h 30m
Length of Day
9h 30m
Waning Gibbous, 65% of the Moon is Illuminated
Jan 3
Waning Gibbous
Jan 4
Last Quarter
Jan 11
New
Jan 18
First Quarter
Jan 26
Full

Hourly Weather History & Observations

Time (EST) Temp. Windchill Dew Point Humidity Pressure Visibility Wind Dir Wind Speed Gust Speed Precip Events Conditions
12:53 AM 21.9 °F - 16.0 °F 78% 30.27 in 10.0 mi Calm Calm - N/A   Clear
1:53 AM 19.9 °F - 16.0 °F 85% 30.27 in 10.0 mi Calm Calm - N/A   Clear
2:53 AM 19.0 °F - 16.0 °F 88% 30.28 in 8.0 mi Calm Calm - N/A   Clear
3:53 AM 19.9 °F - 16.0 °F 85% 30.25 in 9.0 mi Calm Calm - N/A   Clear
4:53 AM 19.0 °F - 16.0 °F 88% 30.27 in 7.0 mi Calm Calm - N/A   Clear
5:53 AM 17.1 °F - 15.1 °F 92% 30.27 in 5.0 mi Calm Calm - N/A   Clear
6:53 AM 17.6 °F - 15.8 °F 93% 30.27 in 5.0 mi Calm Calm - N/A   Clear
7:53 AM 17.1 °F - 15.1 °F 92% 30.30 in 5.0 mi Calm Calm - N/A   Clear
8:53 AM 19.0 °F - 17.1 °F 92% 30.31 in 6.0 mi Calm Calm - N/A   Clear
9:53 AM 25.0 °F 20.7 °F 19.9 °F 81% 30.30 in 9.0 mi South 3.5 mph - N/A   Clear
10:53 AM 30.0 °F 24.1 °F 17.1 °F 59% 30.31 in 10.0 mi SW 5.8 mph - N/A   Clear
11:53 AM 34.0 °F 28.0 °F 17.1 °F 50% 30.28 in 10.0 mi WSW 6.9 mph - N/A   Clear
12:53 PM 35.1 °F 27.9 °F 15.1 °F 44% 30.27 in 10.0 mi West 9.2 mph - N/A   Clear
1:02 PM 35.6 °F 27.5 °F 17.6 °F 48% 30.25 in 10.0 mi SW 11.5 mph - N/A   Clear
1:53 PM 36.0 °F 26.3 °F 19.0 °F 50% 30.26 in 10.0 mi WSW 16.1 mph - N/A   Clear
2:53 PM 36.0 °F 26.7 °F 21.9 °F 57% 30.27 in 10.0 mi WSW 15.0 mph - N/A   Partly Cloudy
3:53 PM 35.1 °F 26.4 °F 21.9 °F 59% 30.30 in 10.0 mi West 12.7 mph - N/A   Partly Cloudy
4:53 PM 34.0 °F 26.0 °F 21.0 °F 59% 30.30 in 10.0 mi WSW 10.4 mph - N/A   Clear
5:53 PM 33.1 °F 27.7 °F 19.9 °F 59% 30.32 in 10.0 mi West 5.8 mph - N/A   Mostly Cloudy
6:53 PM 33.1 °F 27.7 °F 21.0 °F 61% 30.33 in 10.0 mi WSW 5.8 mph - N/A   Overcast
7:53 PM 33.1 °F 26.1 °F 21.9 °F 64% 30.34 in 10.0 mi WSW 8.1 mph - N/A   Overcast
8:53 PM 33.1 °F 24.4 °F 23.0 °F 66% 30.34 in 10.0 mi WSW 11.5 mph - N/A   Overcast
9:53 PM 33.1 °F 23.9 °F 21.9 °F 64% 30.35 in 10.0 mi West 12.7 mph - N/A   Overcast
10:53 PM 32.0 °F 23.6 °F 21.9 °F 66% 30.36 in 10.0 mi NW 10.4 mph 20.7 mph N/A   Overcast
11:53 PM 32.0 °F 24.8 °F 21.9 °F 66% 30.36 in 10.0 mi WSW 8.1 mph - N/A   Overcast